Weather History for Berlin, NH

Change the Weather History Date:

Sunday, December 9, 2012

  Actual Average Record
Temperature  
Mean Temperature 34 °F -  
Max Temperature 42 °F 31 °F 42 °F (2012)
Min Temperature 27 °F 13 °F -18 °F (2003)
Degree Days  
Heating Degree Days 30    
Moisture  
Dew Point 27 °F    
Average Humidity 73    
Maximum Humidity 93    
Minimum Humidity 53    
Precipitation  
Precipitation 0.00 in - - ()
Sea Level Pressure  
Sea Level Pressure 30.15 in    
Wind  
Wind Speed 4 mph (NW)    
Max Wind Speed 14 mph    
Max Gust Speed 22 mph    
Visibility 10 miles    
Events Rain    
Averages and records for this station are not official NWS values.
T = Trace of Precipitation, MM = Missing Value Source: NWS Daily Summary

Daily Weather History Graph

Daily Weather History Graph

Search for Another Location

Airport:

Trip Planner

Search our weather history database for the weather conditions in past years. The results will help you decide how hot, cold, wet, or windy it might be!

Date:

Astronomy

Dec. 09, 2012 Rise Set
Actual Time 7:09 AM EST 4:04 PM EST
Civil Twilight 6:36 AM EST 4:37 PM EST
Nautical Twilight 5:59 AM EST 5:14 PM EST
Astronomical Twilight 5:24 AM EST 5:49 PM EST
Moon 2:31 AM EST (12/9) 1:15 PM EST (12/9)
Length of Visible Light 10h 01m
Length of Day
8h 54m
Waning Crescent, 19% of the Moon is Illuminated
Dec 9
Waning Crescent
Dec 13
New
Dec 20
First Quarter
Dec 28
Full
Jan 4
Last Quarter

Hourly Weather History & Observations

Time (EST) Temp. Windchill Dew Point Humidity Pressure Visibility Wind Dir Wind Speed Gust Speed Precip Events Conditions
12:25 AM 37.4 °F - 33.8 °F 87% 29.88 in 10.0 mi Calm Calm - 0.00 in   Overcast
12:37 AM 37.4 °F - 35.6 °F 93% 29.88 in 10.0 mi Calm Calm - 0.00 in   Overcast
12:52 AM 41.0 °F 39.0 °F 37.0 °F 86% 29.93 in 10.0 mi NNW 3.5 mph - 0.00 in   Overcast
1:22 AM 42.8 °F 38.6 °F 35.6 °F 76% 29.91 in 10.0 mi North 6.9 mph - 0.00 in Rain Light Rain
1:52 AM 41.0 °F 38.0 °F 36.0 °F 82% 29.97 in 9.0 mi Variable 4.6 mph - 0.00 in Rain Light Rain
2:52 AM 39.9 °F 33.9 °F 33.1 °F 77% 30.02 in 10.0 mi NW 9.2 mph - 0.00 in   Overcast
3:32 AM 39.2 °F 34.2 °F 30.2 °F 70% 29.99 in 10.0 mi NW 6.9 mph 18.4 mph N/A   Overcast
3:52 AM 39.0 °F 32.8 °F 30.0 °F 70% 30.04 in 10.0 mi WNW 9.2 mph 16.1 mph N/A   Overcast
4:18 AM 37.4 °F 31.4 °F 30.2 °F 75% 30.02 in 10.0 mi WNW 8.1 mph 17.3 mph N/A   Overcast
4:52 AM 37.9 °F 31.5 °F 28.9 °F 70% 30.08 in 10.0 mi WNW 9.2 mph 16.1 mph N/A   Overcast
5:52 AM 37.0 °F 29.3 °F 28.0 °F 70% 30.11 in 10.0 mi WNW 11.5 mph 21.9 mph N/A   Overcast
6:52 AM 35.1 °F 25.9 °F 26.1 °F 70% 30.17 in 10.0 mi West 13.8 mph 20.7 mph N/A   Mostly Cloudy
7:52 AM 35.1 °F 29.3 °F 26.1 °F 70% 30.21 in 10.0 mi Variable 6.9 mph - N/A   Overcast
8:52 AM 35.1 °F - 26.1 °F 70% 30.24 in 10.0 mi Calm Calm - N/A   Overcast
9:10 AM 35.6 °F 31.7 °F 26.6 °F 70% 30.20 in 10.0 mi Variable 4.6 mph - N/A   Overcast
9:52 AM 37.0 °F 30.4 °F 25.0 °F 62% 30.25 in 10.0 mi WNW 9.2 mph - N/A   Clear
10:52 AM 37.9 °F 31.5 °F 26.1 °F 62% 30.26 in 10.0 mi West 9.2 mph - N/A   Scattered Clouds
11:52 AM 39.0 °F 35.7 °F 24.1 °F 55% 30.25 in 10.0 mi WNW 4.6 mph - N/A   Partly Cloudy
1:52 PM 37.9 °F 34.4 °F 21.9 °F 53% 30.24 in 10.0 mi Variable 4.6 mph - N/A   Clear
2:52 PM 37.9 °F 35.5 °F 21.9 °F 53% 30.26 in 10.0 mi Variable 3.5 mph - N/A   Partly Cloudy
3:52 PM 34.0 °F 29.8 °F 21.9 °F 61% 30.30 in 10.0 mi NNW 4.6 mph - N/A   Clear
4:52 PM 30.9 °F 27.5 °F 21.9 °F 69% 30.32 in 10.0 mi NNW 3.5 mph - N/A   Clear
5:52 PM 27.0 °F - 21.0 °F 78% 30.33 in 10.0 mi Calm Calm - N/A   Mostly Cloudy
6:52 PM 27.0 °F - 21.9 °F 81% 30.32 in 10.0 mi Calm Calm - N/A   Partly Cloudy
7:52 PM 27.0 °F - 21.9 °F 81% 30.30 in 10.0 mi Calm Calm - N/A   Mostly Cloudy
8:52 PM 28.0 °F - 24.1 °F 85% 30.28 in 10.0 mi Calm Calm - N/A   Overcast
9:52 PM 28.9 °F - 23.0 °F 78% 30.24 in 10.0 mi Calm Calm - N/A   Overcast
10:52 PM 28.9 °F - 23.0 °F 78% 30.20 in 10.0 mi Calm Calm - N/A   Overcast